SCP
0 0 0 0 0 0 0 0 0 0 0 0 0 0 0 0 0 0 0 1 0 0 1 1 1 1 1 1 1 1 1 1 1 1 1 1 1 1 0 0 -0 0 0
-0 0 0 0 0 0 0 0 0 0 0 0 0 0 0 0 0 0 0 0 1 0 1 1 1 1 1 1 1 1 1 0 1 1 1 1 1 1 0 0 -0 -0 -0
0 0 0 0 0 0 0 0 0 0 1 0 0 0 0 0 0 0 0 1 1 1 1 1 1 1 1 1 1 1 1 1 1 1 1 1 1 1 0 -0 0 -0 -0
0 1 1 1 0 0 0 0 1 1 1 0 0 0 0 1 0 0 0 0 0 0 1 1 1 1 1 1 1 1 1 1 1 1 1 1 1 1 0 0 -0 0 0
0 1 2 1 1 1 1 0 0 0 0 0 0 0 0 0 0 0 0 0 0 0 0 1 1 1 1 1 1 1 1 1 1 1 1 1 1 1 0 0 -0 -0 1
1 2 2 1 1 1 0 0 0 0 1 0 0 0 0 0 0 0 0 0 0 0 0 0 0 0 0 1 1 0 0 0 0 1 1 1 1 1 1 1 0 0 1
3 2 1 1 2 2 1 1 0 1 1 0 0 0 0 0 0 0 0 0 0 0 0 0 0 0 1 1 0 0 0 -0 0 0 0 1 1 1 0 0 -0 0 0
2 0 0 0 0 1 1 1 1 0 0 0 0 0 0 0 0 0 0 0 0 0 0 0 0 0 0 0 0 0 -0 -0 -0 0 1 1 1 1 0 0 0 0 0
2 0 -0 0 1 1 1 1 1 0 0 0 0 0 0 0 0 0 0 0 0 0 0 0 0 0 0 0 0 0 0 0 0 0 0 0 1 0 1 0 0 0 -0
0 1 2 1 1 1 1 0 1 1 0 0 0 0 0 0 0 0 0 0 0 0 0 0 0 0 0 0 0 1 0 0 1 1 1 0 0 0 0 0 0 0 0
2 2 1 3 2 0 0 0 0 1 0 0 0 0 0 0 0 0 0 0 0 0 0 0 0 0 0 0 0 0 0 0 0 0 0 1 0 1 0 0 1 0 0
1 1 2 1 0 0 0 0 0 0 0 0 0 0 0 0 0 0 0 0 0 0 0 0 0 0 0 0 0 0 0 0 0 0 0 0 0 0 0 0 0 1 1
0 0 0 0 0 1 1 0 0 0 0 0 0 0 0 0 0 0 0 0 0 0 0 0 0 0 0 0 0 0 0 0 0 0 0 0 0 0 0 0 0 1 1
0 0 0 0 0 0 0 0 0 0 1 0 0 0 0 0 0 0 0 0 0 0 0 0 0 0 0 0 0 0 0 0 0 0 0 0 0 0 0 0 0 0 0
0 0 0 0 0 0 0 0 0 0 0 0 0 0 1 0 0 0 0 0 0 0 0 0 0 0 0 0 0 0 0 0 0 0 0 -0 -0 -0 -0 0 0 0 0
0 0 0 0 0 0 0 0 0 0 0 0 0 0 0 0 0 0 0 0 0 0 0 0 0 0 0 0 0 0 0 0 0 0 -0 -0 0 0 0 0 0 0 0
0 0 0 0 0 0 0 0 0 0 0 0 0 0 0 0 0 0 0 0 0 0 0 0 0 0 0 0 0 0 0 0 0 0 -0 0 0 0 0 0 0 0 0
0 0 0 0 0 0 0 0 0 0 0 0 0 0 0 0 0 0 0 0 0 0 0 0 0 0 0 0 0 0 0 0 0 0 0 0 0 0 -0 -0 0 0 0
0 0 0 0 0 0 0 0 0 0 0 0 0 0 0 0 0 0 0 0 0 0 0 0 0 0 0 0 0 0 0 0 0 0 0 0 0 0 0 0 0 0 0
0 0 0 0 0 0 0 0 0 0 0 0 0 0 0 0 0 0 0 0 0 0 0 0 0 0 0 0 0 0 0 0 0 0 0 0 0 0 0 0 -0 -0 -0
0 0 0 0 0 0 0 0 0 0 0 0 0 0 0 0 0 0 0 0 0 0 0 0 0 0 0 0 0 0 0 0 0 0 0 0 0 0 0 0 -0 -0 -0
0 0 0 0 0 0 0 0 0 0 0 0 0 0 0 0 0 0 0 0 0 0 0 0 0 0 0 0 0 0 0 0 0 0 0 0 0 0 0 0 -0 -0 -0
0 0 0 0 0 0 0 0 0 0 0 0 0 0 0 0 0 0 0 0 0 0 0 0 0 0 0 0 0 0 0 0 0 0 0 0 0 0 0 0 -0 -0 0
0 0 0 0 0 0 0 0 0 0 0 0 0 0 0 0 0 0 0 0 0 0 0 0 0 0 0 0 0 0 0 0 0 0 0 0 0 0 0 0 0 0 -0
0 0 0 0 0 0 0 0 0 0 0 0 0 0 0 0 0 0 0 0 0 0 0 0 0 0 0 0 0 0 0 0 0 0 0 0 0 0 0 0 0 0 0
0 0 0 0 0 0 0 0 0 0 0 0 0 0 0 0 0 0 0 0 0 -0 0 0 0 0 0 0 0 0 0 0 0 0 0 0 0 0 -0 0 0 0 0
Wind_Speed_500mb
42 33 26 31 25 20 12 20 13 13 20 15 15 20 20 21 23 26 27 28 29 39 47 49 53 52 53 55 54 58 58 54 51 49 46 41 41 35 33 35 35 33 31
41 37 36 31 29 29 26 20 20 17 10 14 21 21 25 22 24 30 36 39 41 44 46 50 47 49 50 50 50 53 57 61 57 57 53 50 48 44 36 45 40 37 36
45 39 40 45 40 36 30 25 26 26 25 26 28 36 37 35 37 35 35 39 43 51 56 58 57 49 48 54 53 58 61 56 56 61 62 58 56 54 50 51 46 39 37
36 39 41 36 33 35 41 37 32 35 32 36 33 19 21 15 17 26 31 31 38 44 44 45 53 55 58 59 56 64 63 59 58 54 61 66 66 63 56 60 51 46 43
34 38 48 47 38 35 37 43 41 31 23 43 24 28 32 35 37 44 46 44 34 32 35 42 49 56 59 64 65 61 60 61 60 54 51 59 66 69 62 59 59 54 49
39 40 39 46 53 49 41 43 30 26 42 41 33 37 35 36 39 34 33 32 40 44 44 48 53 57 57 58 59 68 61 61 68 57 53 51 56 65 66 62 59 58 56
45 47 43 37 54 49 46 42 28 24 31 37 39 34 35 33 35 35 31 37 37 44 53 59 58 59 60 51 51 66 74 68 74 46 42 47 52 55 62 62 61 61 59
54 51 48 36 48 43 42 40 37 41 40 36 35 35 32 36 35 19 26 33 45 47 42 37 47 42 47 46 49 45 51 34 49 68 55 48 54 52 53 60 59 61 59
48 27 37 41 39 37 47 40 45 39 38 43 37 30 14 19 33 45 45 44 45 42 38 42 40 44 45 29 34 35 30 42 44 43 46 49 51 52 50 50 55 58 60
34 30 37 35 30 45 37 36 35 42 42 43 33 35 37 38 37 45 50 53 47 47 43 49 47 47 46 49 49 44 33 35 35 44 44 45 43 46 47 51 52 55 61
35 21 31 32 37 42 45 43 45 48 43 41 41 39 38 40 44 51 57 51 54 58 51 50 55 47 46 49 47 43 46 39 37 38 40 51 37 42 49 50 46 49 55
20 25 36 36 35 42 41 42 43 44 44 44 49 52 51 52 57 55 63 71 76 66 62 65 58 57 57 42 47 43 44 38 30 26 32 33 35 37 47 47 48 48 48
25 28 28 31 32 35 33 32 37 44 49 54 56 57 57 61 64 67 74 83 84 82 79 69 63 67 61 45 48 45 41 44 34 28 27 31 36 37 36 40 47 52 56
23 28 33 38 39 35 34 39 44 47 48 52 55 60 66 68 69 74 80 81 82 78 74 72 65 60 53 65 59 54 59 52 52 51 49 50 51 46 43 48 54 55 56
17 18 20 26 33 38 45 49 53 58 59 62 68 68 70 70 74 80 84 86 86 79 82 67 63 60 66 61 59 70 67 59 70 67 62 60 63 62 60 52 44 48 50
29 28 30 35 40 46 50 54 58 63 67 71 72 71 71 67 69 76 79 79 79 83 95 74 68 67 64 67 77 73 76 72 72 70 67 75 78 71 60 57 62 52 47
37 42 48 50 51 53 55 58 60 63 67 68 69 69 68 67 72 74 74 77 84 86 98 100 76 65 60 62 66 66 81 84 66 65 82 72 39 49 59 57 53 57 48
41 44 49 53 56 57 56 57 56 56 53 55 58 59 62 63 68 67 69 73 78 77 84 98 82 79 84 89 83 70 67 84 86 89 71 58 62 63 53 69 63 58 59
43 47 51 57 60 61 63 65 64 63 64 63 63 62 62 61 65 62 64 72 76 73 73 75 76 71 76 76 83 90 102 107 96 75 60 65 65 47 45 44 53 53 57
53 55 55 56 56 59 64 66 64 65 66 71 75 78 80 78 78 72 67 70 79 83 81 81 88 80 66 58 57 67 82 84 74 56 61 78 49 47 45 45 55 58 60
48 50 53 55 54 49 48 49 53 56 59 65 69 69 77 83 79 76 80 79 74 75 82 84 80 76 72 70 75 76 68 72 77 81 86 85 64 54 54 59 65 65 68
52 49 48 43 41 43 50 55 57 58 58 61 63 67 69 67 67 67 77 92 80 77 83 81 78 69 72 70 76 77 78 73 76 79 72 75 64 57 58 66 80 78 71
43 42 42 44 46 50 60 66 60 61 61 62 64 68 69 66 67 69 64 58 60 75 78 78 80 85 82 81 78 73 74 75 75 68 55 57 63 71 83 90 79 70 55
44 49 57 55 56 58 61 61 60 57 62 68 70 70 69 59 57 54 55 56 59 62 62 65 72 79 81 81 75 77 75 78 78 74 78 91 82 100 97 83 70 58 52
50 57 59 51 53 61 59 59 57 59 64 68 66 66 62 60 63 55 57 61 59 60 60 65 70 77 79 81 82 78 78 71 75 77 76 77 76 81 76 75 55 46 50
57 59 55 50 52 57 59 56 53 56 66 70 66 67 67 62 62 61 59 59 70 70 68 75 61 61 64 69 77 69 70 76 57 53 61 59 62 35 36 31 37 39 36
Wind_Direction_500mb
200 192 219 226 215 217 240 235 248 245 231 244 281 296 301 287 278 274 284 291 293 286 282 288 288 288 291 295 291 284 278 273 269 262 261 262 263 258 271 270 267 266 264
200 205 218 228 230 243 246 256 264 273 250 251 279 288 277 286 302 301 301 298 298 299 298 303 296 294 291 296 297 294 289 281 274 269 263 259 258 257 250 276 263 259 260
200 205 222 227 229 241 250 254 250 254 248 239 249 283 274 270 274 292 297 299 295 296 298 299 301 299 292 293 293 289 284 286 281 273 268 265 261 258 253 255 259 257 257
216 207 225 227 234 239 238 241 255 258 260 253 255 256 285 292 277 274 281 290 293 296 299 306 297 295 294 296 296 287 285 282 281 281 275 269 265 261 258 258 256 251 259
235 231 221 218 228 233 235 238 239 256 257 261 244 236 256 261 265 272 279 289 302 313 307 302 301 298 296 294 293 290 288 289 284 282 279 273 269 263 260 259 255 258 257
233 231 232 226 223 232 247 246 264 259 235 235 245 250 255 267 273 279 299 298 295 297 298 293 293 294 299 294 289 275 271 277 280 279 282 281 272 267 260 258 254 254 260
231 222 225 230 231 222 232 249 259 245 226 239 257 265 268 278 284 290 286 288 295 297 297 296 299 300 302 296 300 305 286 267 277 266 278 278 277 271 263 260 256 253 256
226 241 245 261 249 245 244 246 243 239 256 264 270 274 278 284 289 290 286 291 301 312 314 308 313 323 322 310 300 314 297 295 285 285 277 281 274 274 272 260 257 254 251
238 245 232 238 261 245 241 244 242 246 257 258 261 242 232 244 286 295 300 303 309 314 304 313 308 311 320 339 325 322 316 293 290 281 282 280 278 281 272 265 257 254 251
246 248 234 240 231 225 229 230 224 241 254 256 252 244 250 261 274 286 289 295 301 301 299 305 303 301 302 309 309 305 301 293 301 278 279 273 282 290 279 271 265 258 253
231 246 238 235 227 232 240 239 239 251 257 263 268 273 269 263 264 275 284 284 283 292 289 286 304 294 313 300 304 308 300 304 291 299 289 281 283 294 289 278 271 266 258
249 244 246 253 249 249 251 251 252 247 249 257 265 272 275 278 281 282 282 285 288 289 283 286 290 288 303 302 296 304 303 302 279 283 276 279 277 286 294 285 279 273 263
206 216 215 217 228 242 253 264 264 260 259 262 266 271 274 276 279 282 283 285 286 286 286 284 277 286 294 291 287 294 297 298 292 290 290 287 282 279 283 296 292 279 270
190 210 216 222 227 235 241 249 254 259 263 265 271 276 280 280 281 279 278 278 278 280 279 279 283 288 274 284 272 286 285 280 286 294 295 295 296 290 285 287 302 279 273
236 234 233 233 237 242 247 255 262 266 267 270 272 274 272 274 275 275 275 274 275 278 277 279 279 277 275 277 270 287 273 277 283 286 289 293 293 290 289 289 281 288 274
272 287 286 280 277 276 276 276 275 274 276 275 275 273 272 274 274 273 272 271 271 273 279 279 278 277 275 267 272 278 265 280 280 278 283 292 288 286 282 275 274 279 281
292 291 291 292 294 292 290 288 287 285 284 285 283 283 280 277 274 274 275 275 272 270 272 278 277 276 274 272 272 264 269 279 270 280 288 285 277 290 281 279 276 272 276
297 293 293 296 296 297 295 289 285 281 278 276 275 275 277 278 276 275 274 275 276 277 275 278 277 273 270 265 265 269 266 272 281 284 283 267 285 293 279 262 272 274 281
299 299 298 297 295 293 292 287 285 283 280 278 276 274 273 273 273 272 272 270 268 270 271 276 282 281 279 275 275 269 266 270 277 266 266 274 289 272 274 273 270 268 272
300 302 303 302 302 304 302 302 300 294 288 285 284 284 282 279 276 274 273 272 271 270 271 273 273 275 278 282 282 276 272 266 270 270 255 281 274 275 265 279 276 277 274
316 318 316 316 317 319 321 325 318 310 305 305 301 296 290 286 280 277 276 270 273 276 277 281 283 281 277 276 272 274 276 276 270 271 273 275 261 264 260 266 266 277 280
329 330 332 332 334 333 328 327 326 320 315 306 304 308 305 300 293 290 283 269 268 272 275 277 279 274 276 272 269 266 268 268 271 271 269 261 261 245 258 268 284 282 279
341 342 336 333 329 328 329 330 323 312 308 306 306 311 310 305 300 295 294 290 280 269 265 268 270 271 276 275 273 266 261 260 262 257 252 257 256 267 268 278 284 285 264
339 338 334 327 320 323 327 321 318 311 308 304 301 309 308 308 312 308 302 293 286 284 276 270 271 276 275 274 270 270 273 270 263 255 254 267 270 269 274 280 282 277 261
335 333 335 333 325 322 327 327 320 311 305 308 305 303 308 302 307 305 303 299 294 289 285 283 278 279 271 269 265 266 264 264 258 257 259 261 264 271 282 282 276 263 264
335 337 338 338 333 331 332 329 318 313 309 305 305 304 304 301 302 300 298 297 296 290 292 295 296 300 279 261 254 245 247 250 243 252 259 253 264 278 300 280 268 262 256
Wind_Speed_850mb
42 33 26 31 25 20 12 20 13 13 20 15 15 20 20 21 23 26 27 28 29 39 47 49 53 52 53 55 54 58 58 54 51 49 46 41 41 35 33 35 35 33 31
41 37 36 31 29 29 26 20 20 17 10 14 21 21 25 22 24 30 36 39 41 44 46 50 47 49 50 50 50 53 57 61 57 57 53 50 48 44 36 45 40 37 36
45 39 40 45 40 36 30 25 26 26 25 26 28 36 37 35 37 35 35 39 43 51 56 58 57 49 48 54 53 58 61 56 56 61 62 58 56 54 50 51 46 39 37
36 39 41 36 33 35 41 37 32 35 32 36 33 19 21 15 17 26 31 31 38 44 44 45 53 55 58 59 56 64 63 59 58 54 61 66 66 63 56 60 51 46 43
34 38 48 47 38 35 37 43 41 31 23 43 24 28 32 35 37 44 46 44 34 32 35 42 49 56 59 64 65 61 60 61 60 54 51 59 66 69 62 59 59 54 49
39 40 39 46 53 49 41 43 30 26 42 41 33 37 35 36 39 34 33 32 40 44 44 48 53 57 57 58 59 68 61 61 68 57 53 51 56 65 66 62 59 58 56
45 47 43 37 54 49 46 42 28 24 31 37 39 34 35 33 35 35 31 37 37 44 53 59 58 59 60 51 51 66 74 68 74 46 42 47 52 55 62 62 61 61 59
54 51 48 36 48 43 42 40 37 41 40 36 35 35 32 36 35 19 26 33 45 47 42 37 47 42 47 46 49 45 51 34 49 68 55 48 54 52 53 60 59 61 59
48 27 37 41 39 37 47 40 45 39 38 43 37 30 14 19 33 45 45 44 45 42 38 42 40 44 45 29 34 35 30 42 44 43 46 49 51 52 50 50 55 58 60
34 30 37 35 30 45 37 36 35 42 42 43 33 35 37 38 37 45 50 53 47 47 43 49 47 47 46 49 49 44 33 35 35 44 44 45 43 46 47 51 52 55 61
35 21 31 32 37 42 45 43 45 48 43 41 41 39 38 40 44 51 57 51 54 58 51 50 55 47 46 49 47 43 46 39 37 38 40 51 37 42 49 50 46 49 55
20 25 36 36 35 42 41 42 43 44 44 44 49 52 51 52 57 55 63 71 76 66 62 65 58 57 57 42 47 43 44 38 30 26 32 33 35 37 47 47 48 48 48
25 28 28 31 32 35 33 32 37 44 49 54 56 57 57 61 64 67 74 83 84 82 79 69 63 67 61 45 48 45 41 44 34 28 27 31 36 37 36 40 47 52 56
23 28 33 38 39 35 34 39 44 47 48 52 55 60 66 68 69 74 80 81 82 78 74 72 65 60 53 65 59 54 59 52 52 51 49 50 51 46 43 48 54 55 56
17 18 20 26 33 38 45 49 53 58 59 62 68 68 70 70 74 80 84 86 86 79 82 67 63 60 66 61 59 70 67 59 70 67 62 60 63 62 60 52 44 48 50
29 28 30 35 40 46 50 54 58 63 67 71 72 71 71 67 69 76 79 79 79 83 95 74 68 67 64 67 77 73 76 72 72 70 67 75 78 71 60 57 62 52 47
37 42 48 50 51 53 55 58 60 63 67 68 69 69 68 67 72 74 74 77 84 86 98 100 76 65 60 62 66 66 81 84 66 65 82 72 39 49 59 57 53 57 48
41 44 49 53 56 57 56 57 56 56 53 55 58 59 62 63 68 67 69 73 78 77 84 98 82 79 84 89 83 70 67 84 86 89 71 58 62 63 53 69 63 58 59
43 47 51 57 60 61 63 65 64 63 64 63 63 62 62 61 65 62 64 72 76 73 73 75 76 71 76 76 83 90 102 107 96 75 60 65 65 47 45 44 53 53 57
53 55 55 56 56 59 64 66 64 65 66 71 75 78 80 78 78 72 67 70 79 83 81 81 88 80 66 58 57 67 82 84 74 56 61 78 49 47 45 45 55 58 60
48 50 53 55 54 49 48 49 53 56 59 65 69 69 77 83 79 76 80 79 74 75 82 84 80 76 72 70 75 76 68 72 77 81 86 85 64 54 54 59 65 65 68
52 49 48 43 41 43 50 55 57 58 58 61 63 67 69 67 67 67 77 92 80 77 83 81 78 69 72 70 76 77 78 73 76 79 72 75 64 57 58 66 80 78 71
43 42 42 44 46 50 60 66 60 61 61 62 64 68 69 66 67 69 64 58 60 75 78 78 80 85 82 81 78 73 74 75 75 68 55 57 63 71 83 90 79 70 55
44 49 57 55 56 58 61 61 60 57 62 68 70 70 69 59 57 54 55 56 59 62 62 65 72 79 81 81 75 77 75 78 78 74 78 91 82 100 97 83 70 58 52
50 57 59 51 53 61 59 59 57 59 64 68 66 66 62 60 63 55 57 61 59 60 60 65 70 77 79 81 82 78 78 71 75 77 76 77 76 81 76 75 55 46 50
57 59 55 50 52 57 59 56 53 56 66 70 66 67 67 62 62 61 59 59 70 70 68 75 61 61 64 69 77 69 70 76 57 53 61 59 62 35 36 31 37 39 36
Wind_Direction_850mb
200 192 219 226 215 217 240 235 248 245 231 244 281 296 301 287 278 274 284 291 293 286 282 288 288 288 291 295 291 284 278 273 269 262 261 262 263 258 271 270 267 266 264
200 205 218 228 230 243 246 256 264 273 250 251 279 288 277 286 302 301 301 298 298 299 298 303 296 294 291 296 297 294 289 281 274 269 263 259 258 257 250 276 263 259 260
200 205 222 227 229 241 250 254 250 254 248 239 249 283 274 270 274 292 297 299 295 296 298 299 301 299 292 293 293 289 284 286 281 273 268 265 261 258 253 255 259 257 257
216 207 225 227 234 239 238 241 255 258 260 253 255 256 285 292 277 274 281 290 293 296 299 306 297 295 294 296 296 287 285 282 281 281 275 269 265 261 258 258 256 251 259
235 231 221 218 228 233 235 238 239 256 257 261 244 236 256 261 265 272 279 289 302 313 307 302 301 298 296 294 293 290 288 289 284 282 279 273 269 263 260 259 255 258 257
233 231 232 226 223 232 247 246 264 259 235 235 245 250 255 267 273 279 299 298 295 297 298 293 293 294 299 294 289 275 271 277 280 279 282 281 272 267 260 258 254 254 260
231 222 225 230 231 222 232 249 259 245 226 239 257 265 268 278 284 290 286 288 295 297 297 296 299 300 302 296 300 305 286 267 277 266 278 278 277 271 263 260 256 253 256
226 241 245 261 249 245 244 246 243 239 256 264 270 274 278 284 289 290 286 291 301 312 314 308 313 323 322 310 300 314 297 295 285 285 277 281 274 274 272 260 257 254 251
238 245 232 238 261 245 241 244 242 246 257 258 261 242 232 244 286 295 300 303 309 314 304 313 308 311 320 339 325 322 316 293 290 281 282 280 278 281 272 265 257 254 251
246 248 234 240 231 225 229 230 224 241 254 256 252 244 250 261 274 286 289 295 301 301 299 305 303 301 302 309 309 305 301 293 301 278 279 273 282 290 279 271 265 258 253
231 246 238 235 227 232 240 239 239 251 257 263 268 273 269 263 264 275 284 284 283 292 289 286 304 294 313 300 304 308 300 304 291 299 289 281 283 294 289 278 271 266 258
249 244 246 253 249 249 251 251 252 247 249 257 265 272 275 278 281 282 282 285 288 289 283 286 290 288 303 302 296 304 303 302 279 283 276 279 277 286 294 285 279 273 263
206 216 215 217 228 242 253 264 264 260 259 262 266 271 274 276 279 282 283 285 286 286 286 284 277 286 294 291 287 294 297 298 292 290 290 287 282 279 283 296 292 279 270
190 210 216 222 227 235 241 249 254 259 263 265 271 276 280 280 281 279 278 278 278 280 279 279 283 288 274 284 272 286 285 280 286 294 295 295 296 290 285 287 302 279 273
236 234 233 233 237 242 247 255 262 266 267 270 272 274 272 274 275 275 275 274 275 278 277 279 279 277 275 277 270 287 273 277 283 286 289 293 293 290 289 289 281 288 274
272 287 286 280 277 276 276 276 275 274 276 275 275 273 272 274 274 273 272 271 271 273 279 279 278 277 275 267 272 278 265 280 280 278 283 292 288 286 282 275 274 279 281
292 291 291 292 294 292 290 288 287 285 284 285 283 283 280 277 274 274 275 275 272 270 272 278 277 276 274 272 272 264 269 279 270 280 288 285 277 290 281 279 276 272 276
297 293 293 296 296 297 295 289 285 281 278 276 275 275 277 278 276 275 274 275 276 277 275 278 277 273 270 265 265 269 266 272 281 284 283 267 285 293 279 262 272 274 281
299 299 298 297 295 293 292 287 285 283 280 278 276 274 273 273 273 272 272 270 268 270 271 276 282 281 279 275 275 269 266 270 277 266 266 274 289 272 274 273 270 268 272
300 302 303 302 302 304 302 302 300 294 288 285 284 284 282 279 276 274 273 272 271 270 271 273 273 275 278 282 282 276 272 266 270 270 255 281 274 275 265 279 276 277 274
316 318 316 316 317 319 321 325 318 310 305 305 301 296 290 286 280 277 276 270 273 276 277 281 283 281 277 276 272 274 276 276 270 271 273 275 261 264 260 266 266 277 280
329 330 332 332 334 333 328 327 326 320 315 306 304 308 305 300 293 290 283 269 268 272 275 277 279 274 276 272 269 266 268 268 271 271 269 261 261 245 258 268 284 282 279
341 342 336 333 329 328 329 330 323 312 308 306 306 311 310 305 300 295 294 290 280 269 265 268 270 271 276 275 273 266 261 260 262 257 252 257 256 267 268 278 284 285 264
339 338 334 327 320 323 327 321 318 311 308 304 301 309 308 308 312 308 302 293 286 284 276 270 271 276 275 274 270 270 273 270 263 255 254 267 270 269 274 280 282 277 261
335 333 335 333 325 322 327 327 320 311 305 308 305 303 308 302 307 305 303 299 294 289 285 283 278 279 271 269 265 266 264 264 258 257 259 261 264 271 282 282 276 263 264
335 337 338 338 333 331 332 329 318 313 309 305 305 304 304 301 302 300 298 297 296 290 292 295 296 300 279 261 254 245 247 250 243 252 259 253 264 278 300 280 268 262 256